Back to catalog

STARLINK-36909

AliveCommunicationsVLEO
NORAD 67946·PAYLOAD·🇺🇸 United States

Launched Feb 24, 2026 from Vandenberg Space Force Base

Loading…

Next Passes (next 24 hours)

TLE

FreshSource: CelesTrak SupGP

Epoch: Sep 14, 2026, 21:27 UTC

1 67946C 26037Q   26257.89423611  .00014295  00000+0  51772-3 0  2578
2 67946  43.0015 201.8763 0001323 260.6834 349.8503 15.27573865    14

Track STARLINK-36909 in real time with AllMySat

Download on the App Store